{"data":{"norad_id":66215,"intl_designator":"2025-244K","name":"STARLINK-35712","alt_names":[],"object_type":"PAYLOAD","status":"ACTIVE","operator":null,"country":"US","launch_date":"2025-10-28","launch_site_code":"AFWTR","launch_vehicle":null,"mission":null,"orbit_class":"UNKNOWN","rcs_meters":null,"size_class":null,"mass_kg":null,"dimensions":null,"purposes":["comms"],"wikipedia_slug":null,"has_3d_model":false,"image_url":null,"decayed_at":null,"tle_current":{"epoch":"2026-05-24T23:38:33.643104Z","epoch_age_seconds":77148,"freshness":"FRESH","line1":"1 66215U 25244K   26144.98511161  .00011334  00000+0  39409-3 0  9995","line2":"2 66215  53.1581 235.3119 0001438  97.0557 263.0607 15.30208624 33346","mean_motion":15.30208624,"eccentricity":0.0001438,"inclination_deg":53.1581,"raan_deg":235.3119,"arg_perigee_deg":97.0557,"mean_anomaly_deg":263.0607,"bstar":0.00039409,"rev_number":3334,"period_min":94.104815344447,"perigee_km":474.20381150595,"apogee_km":476.17482815554,"semimajor_km":6853.3263198307,"source":"CELESTRAK","updated_at":"2026-05-25T13:38:21.128410Z"}}}